Location: Newark
(45.8667°N, 9.7333°E)
Time: 14:56:31
(UTC+00:00)

Transit 4A - Pass Details

Date: 02 February 2020
Orbit: 872 x 973 km, 66.8° (Epoch: 22 February)

Event Time Altitude Azimuth Distance (km) Brightness Sun altitude
Rises 07:22:17 0° 291° (WNW) 3,501 10.2 5.3°
Reaches altitude 10° 07:27:02 10° 325° (NW) 2,545 9.7 6.0°
Maximum altitude 07:28:46 11° 342° (NNW) 2,452 9.7 6.3°
Drops below altitude 10° 07:30:29 10° 360° (N) 2,537 9.9 6.5°
Sets 07:35:13 0° 34° (NE) 3,471 10.9 7.2°
